This is the latest recevied weather packets stored in our database for station/object KE4LOJ. If no packets are shown the sender has not sent any weather packets the latest 10 day(s).
| Time | Temp. | Humidity | Pressure | Rain* | Wind** | Luminosity | Snow |
|---|---|---|---|---|---|---|---|
| 1777988203 | 23.89° C | 73% | 1017.5 hPa | 0 mm | - | 92 W/m² | - |
| 1777987899 | 23.89° C | 73% | 1017.3 hPa | 0 mm | - | 73 W/m² | - |
| 1777987595 | 23.89° C | 74% | 1017.2 hPa | 0 mm | - | 74 W/m² | - |
| 1777987293 | 23.89° C | 74% | 1017.3 hPa | 0 mm | - | 62 W/m² | - |
| 1777986989 | 23.33° C | 75% | 1017.3 hPa | 0 mm | - | 65 W/m² | - |
| 1777986687 | 23.33° C | 75% | 1017.4 hPa | 0 mm | - | 70 W/m² | - |
| 1777986385 | 23.89° C | 75% | 1017.1 hPa | 0 mm | - | 95 W/m² | - |
| 1777986084 | 23.33° C | 76% | 1017.1 hPa | 0 mm | - | 153 W/m² | - |
| 1777985779 | 23.33° C | 76% | 1017 hPa | 0 mm | - | 54 W/m² | - |
| 1777985477 | 22.78° C | 77% | 1017 hPa | 0 mm | - | 70 W/m² | - |
| 1777985173 | 22.78° C | 77% | 1016.9 hPa | 0 mm | - | 69 W/m² | - |
| 1777984869 | 22.78° C | 78% | 1016.9 hPa | 0 mm | - | 116 W/m² | - |
| 1777984565 | 22.22° C | 79% | 1017.1 hPa | 0 mm | - | 64 W/m² | - |
| 1777984262 | 21.67° C | 81% | 1017.1 hPa | 0 mm | - | 155 W/m² | - |
| 1777983959 | 21.67° C | 82% | 1017.1 hPa | 0 mm | - | 59 W/m² | - |
| 1777983656 | 21.11° C | 82% | 1016.9 hPa | 0 mm | - | 54 W/m² | - |
| 1777983352 | 21.11° C | 82% | 1016.8 hPa | 0 mm | - | 50 W/m² | - |
| 1777983049 | 21.11° C | 84% | 1017 hPa | 0 mm | - | 70 W/m² | - |
| 1777982746 | 20.56° C | 85% | 1016.8 hPa | 0 mm | - | 38 W/m² | - |
| 1777982441 | 20.56° C | 83% | 1016.8 hPa | 0 mm | - | 37 W/m² | - |
| 1777982136 | 20.56° C | 84% | 1016.8 hPa | 0 mm | - | 32 W/m² | - |
| 1777981834 | 20° C | 87% | 1016.8 hPa | 0 mm | - | 32 W/m² | - |
| 1777981531 | 19.44° C | 89% | 1016.8 hPa | 0 mm | - | 39 W/m² | - |
| 1777981227 | 18.89° C | 91% | 1016.8 hPa | 0 mm | - | 28 W/m² | - |
| 1777980924 | 18.33° C | 91% | 1016.6 hPa | 0 mm | - | 24 W/m² | - |
* Rain latest hour (hover to see other rain measurements)
** Current wind speed in m/s (hover to see current wind gust speed)